Time,TemperatureF,DewpointF,PressureIn,WindDirection,WindDirectionDegrees,WindSpeedMPH,WindSpeedGustMPH,Humidity,HourlyPrecipIn,Conditions,Clouds,dailyrainin,SoftwareType,DateUTC
2015-07-28 00:01:00,76.6,74.4,29.84,South,182,0.0,0.0,93,0.00,,,0.00,VWS V14.01,2015-07-28 05:01:00,
2015-07-28 00:06:00,76.6,74.4,29.84,South,182,0.0,0.0,93,0.00,,,0.00,VWS V14.01,2015-07-28 05:06:00,
2015-07-28 00:16:00,76.7,74.5,29.84,South,182,0.0,0.0,93,0.00,,,0.00,VWS V14.01,2015-07-28 05:16:00,
2015-07-28 00:26:00,77.5,74.7,29.84,South,173,0.0,0.0,91,0.00,,,0.00,VWS V14.01,2015-07-28 05:26:00,
2015-07-28 00:31:00,78.0,74.5,29.84,South,173,1.0,0.0,89,0.00,,,0.00,VWS V14.01,2015-07-28 05:31:00,
2015-07-28 00:36:00,78.5,74.7,29.83,South,173,0.0,0.0,88,0.00,,,0.00,VWS V14.01,2015-07-28 05:36:00,
2015-07-28 00:41:00,78.9,74.7,29.83,South,174,0.0,0.0,87,0.00,,,0.00,VWS V14.01,2015-07-28 05:41:00,
2015-07-28 00:46:00,78.9,74.4,29.83,South,174,0.0,0.0,86,0.00,,,0.00,VWS V14.01,2015-07-28 05:46:00,
2015-07-28 00:51:00,78.8,74.3,29.84,South,173,0.0,0.0,86,0.00,,,0.00,VWS V14.01,2015-07-28 05:51:00,
2015-07-28 00:56:00,78.7,74.5,29.84,South,174,0.0,0.0,87,0.00,,,0.00,VWS V14.01,2015-07-28 05:56:00,
2015-07-28 01:01:00,78.5,74.3,29.84,South,174,0.0,0.0,87,0.00,,,0.00,VWS V14.01,2015-07-28 06:01:00,
2015-07-28 01:06:00,78.7,73.8,29.85,South,172,0.0,0.0,85,0.00,,,0.00,VWS V14.01,2015-07-28 06:06:00,
2015-07-28 01:11:00,78.7,74.5,29.85,South,172,0.0,0.0,87,0.00,,,0.00,VWS V14.01,2015-07-28 06:11:00,
2015-07-28 01:16:00,78.5,74.0,29.85,South,172,0.0,0.0,86,0.00,,,0.00,VWS V14.01,2015-07-28 06:16:00,
2015-07-28 01:26:00,78.2,74.0,29.85,South,172,0.0,0.0,87,0.00,,,0.00,VWS V14.01,2015-07-28 06:26:00,
2015-07-28 01:31:00,77.9,74.1,29.85,South,172,0.0,0.0,88,0.00,,,0.00,VWS V14.01,2015-07-28 06:31:00,
2015-07-28 01:36:00,77.7,73.9,29.84,South,172,0.0,0.0,88,0.00,,,0.00,VWS V14.01,2015-07-28 06:36:00,
2015-07-28 01:41:00,77.5,73.3,29.84,South,172,0.0,0.0,87,0.00,,,0.00,VWS V14.01,2015-07-28 06:41:00,
2015-07-28 01:46:00,77.4,73.2,29.84,South,172,0.0,0.0,87,0.00,,,0.00,VWS V14.01,2015-07-28 06:46:00,
2015-07-28 01:51:00,77.4,73.6,29.84,South,172,0.0,0.0,88,0.00,,,0.00,VWS V14.01,2015-07-28 06:51:00,
2015-07-28 01:56:00,77.3,73.1,29.84,South,172,0.0,0.0,87,0.00,,,0.00,VWS V14.01,2015-07-28 06:56:00,
2015-07-28 02:06:00,77.1,72.9,29.84,South,172,0.0,0.0,87,0.00,,,0.00,VWS V14.01,2015-07-28 07:06:00,
2015-07-28 02:11:00,77.1,72.9,29.84,South,172,0.0,0.0,87,0.00,,,0.00,VWS V14.01,2015-07-28 07:11:00,
2015-07-28 02:21:00,77.2,73.0,29.83,South,172,0.0,0.0,87,0.00,,,0.00,VWS V14.01,2015-07-28 07:21:00,
2015-07-28 02:26:00,77.1,72.9,29.83,South,172,0.0,0.0,87,0.00,,,0.00,VWS V14.01,2015-07-28 07:26:00,
2015-07-28 02:31:00,77.0,72.8,29.83,South,173,0.0,0.0,87,0.00,,,0.00,VWS V14.01,2015-07-28 07:31:00,
2015-07-28 02:36:00,76.8,72.6,29.83,South,173,0.0,0.0,87,0.00,,,0.00,VWS V14.01,2015-07-28 07:36:00,
2015-07-28 02:46:00,76.4,72.6,29.83,South,173,0.0,0.0,88,0.00,,,0.00,VWS V14.01,2015-07-28 07:46:00,
2015-07-28 02:51:00,76.2,72.4,29.83,South,173,0.0,0.0,88,0.00,,,0.00,VWS V14.01,2015-07-28 07:51:00,
2015-07-28 02:56:00,76.1,72.6,29.83,South,172,0.0,0.0,89,0.00,,,0.00,VWS V14.01,2015-07-28 07:56:00,
2015-07-28 03:01:00,76.0,72.5,29.83,South,172,0.0,0.0,89,0.00,,,0.00,VWS V14.01,2015-07-28 08:01:00,
2015-07-28 03:06:00,75.8,72.7,29.83,South,173,0.0,0.0,90,0.00,,,0.00,VWS V14.01,2015-07-28 08:06:00,
2015-07-28 03:11:00,75.7,72.6,29.83,South,173,0.0,0.0,90,0.00,,,0.00,VWS V14.01,2015-07-28 08:11:00,
2015-07-28 03:16:00,75.5,72.7,29.83,South,173,0.0,0.0,91,0.00,,,0.00,VWS V14.01,2015-07-28 08:16:00,
2015-07-28 03:21:00,75.4,72.6,29.83,South,172,0.0,0.0,91,0.00,,,0.00,VWS V14.01,2015-07-28 08:21:00,
2015-07-28 03:26:00,75.3,72.5,29.83,South,173,0.0,0.0,91,0.00,,,0.00,VWS V14.01,2015-07-28 08:26:00,
2015-07-28 03:31:00,75.1,72.3,29.83,South,173,0.0,0.0,91,0.00,,,0.00,VWS V14.01,2015-07-28 08:31:00,
2015-07-28 03:36:00,74.9,72.1,29.83,South,173,0.0,0.0,91,0.00,,,0.00,VWS V14.01,2015-07-28 08:36:00,
2015-07-28 03:41:00,74.8,72.0,29.83,South,173,0.0,0.0,91,0.00,,,0.00,VWS V14.01,2015-07-28 08:41:00,
2015-07-28 03:46:00,74.7,72.2,29.83,South,173,0.0,0.0,92,0.00,,,0.00,VWS V14.01,2015-07-28 08:46:00,
2015-07-28 03:51:00,74.6,72.1,29.83,South,173,0.0,0.0,92,0.00,,,0.00,VWS V14.01,2015-07-28 08:51:00,
2015-07-28 03:56:00,74.6,72.1,29.83,South,172,0.0,0.0,92,0.00,,,0.00,VWS V14.01,2015-07-28 08:56:00,